Location: Platte
(43.3870°N, 98.8440°W)
Time: 13:59:05
(UTC-06:00)

Daily predictions for brighter satellites

Satellite Brightness Start Highest point End
(mag) Time Altitude Azimuth Time Altitude Azimuth Time Altitude Azimuth
Meteor 1-11 Rocket 3.8 18:50:22 10° S 18:56:11 75° E 19:02:08 10° NNE
Geosat 4.5 18:51:47 10° NNE 18:56:48 67° WNW 19:01:46 10° SW
Okean 1-7 Rocket 3.6 18:56:55 10° N 19:01:24 59° E 19:05:47 10° SSE
Cosmos 1300 Rocket 4.0 19:06:00 10° SSW 19:10:25 67° W 19:14:52 10° N
Meteor 1-5 Rocket 4.5 19:06:04 10° S 19:11:49 53° E 19:17:29 10° NNE
ATLAS CENTAUR R/B 2.8 19:09:00 10° S 19:12:05 18° SE 19:13:24 14° ESE
Cosmos 1238 Rocket 3.6 19:11:16 10° NNW 19:14:04 41° W 19:17:02 10° SSW
Cosmos 1763 Rocket 4.5 19:11:56 10° N 19:16:17 27° ENE 19:20:13 12° ESE
Cosmos 2285 Rocket 4.0 19:11:26 10° NNW 19:17:53 72° ENE 19:24:16 10° SSE
Cosmos 1455 Rocket 4.1 19:17:03 10° SE 19:20:33 24° E 19:24:03 10° NE
Cosmos 405 Rocket 3.2 19:18:07 10° N 19:21:59 41° ENE 19:25:45 10° SSE
FengYun 1-2 T 4.2 19:17:12 10° SSE 19:22:34 60° ENE 19:28:00 10° N
Cosmos 2237 Rocket 2.6 19:18:39 10° NNW 19:24:06 44° ENE 19:29:31 10° SE
COSMO-SKYMED 1 4.2 19:21:56 10° N 19:25:58 38° WNW 19:29:58 10° SW
Cosmos 2297 Rocket 3.1 19:22:06 10° SSE 19:26:43 26° ESE 19:31:21 10° NE
H-2A R/B 3.1 19:25:03 10° SE 19:28:33 41° ENE 19:32:07 10° N
ALOS 2.2 19:24:43 10° SSE 19:29:21 71° ENE 19:34:02 10° N
SAR-Lupe-4 4.5 19:29:01 18° ESE 19:30:53 28° ENE 19:33:59 10° N
Cosmos 2219 Rocket 2.1 19:27:41 10° NNW 19:33:19 83° ENE 19:38:56 10° SSE
CZ-2D R/B 3.8 19:30:04 11° SE 19:33:24 35° ENE 19:36:55 10° N
COSMOS 2428 3.4 19:28:20 10° NNW 19:33:54 56° WSW 19:39:26 10° S
Cosmos 371 Rocket 4.4 19:30:08 10° N 19:34:08 24° ENE 19:35:46 21° E
SJ-6B 3.2 19:31:33 10° S 19:35:29 66° W 19:39:20 10° NNW
Meteor 2-4 Rocket 4.4 19:35:53 10° NNW 19:41:15 55° W 19:46:27 10° S
Cosmos 2227 Rocket 2.3 19:41:55 10° S 19:47:21 51° ESE 19:52:51 10° NE
Resurs 01 Rocket 1.5 19:43:16 10° SSE 19:47:39 81° ENE 19:52:05 10° N
Cosmos 1441 Rocket 3.8 19:44:31 10° N 19:48:15 37° ENE 19:49:21 31° ESE
USA 229 DEB 4.3 19:41:24 10° NW 19:48:25 62° WSW 19:55:32 10° SSE
USA 229 4.3 19:41:30 10° NW 19:48:32 62° WSW 19:55:39 10° SSE
Cosmos 2219 4.1 19:42:56 10° SW 19:48:32 52° WNW 19:54:09 10° NNE
Cosmos 468 Rocket 4.0 19:43:38 10° NNW 19:48:55 90° WSW 19:54:12 10° SSE
Cosmos 1025 Rocket 4.0 19:47:12 10° NNW 19:51:28 51° W 19:55:43 10° S
Resurs 1-3 3.5 19:48:43 10° SSE 19:53:05 78° ENE 19:57:30 10° N
Spot 2 Rocket 3.5 19:51:36 10° SSE 19:56:40 88° WSW 20:01:47 10° NNW
Cosmos 1892 Rocket 3.5 19:53:18 10° N 19:57:41 86° W 20:02:04 10° S
Cosmos 1610 Rocket 4.4 19:52:06 10° S 19:58:19 86° E 20:04:30 10° N
Gbstr 26 Del rocket 4.2 19:55:17 10° WNW 19:58:38 29° NNW 20:00:29 19° NNE
BREEZE-M DEB (TANK) 1.7 19:55:50 10° WSW 19:59:11 90° WNW 19:59:20 76° ENE
NOSS 3-1 (A) 4.0 19:53:40 10° NNW 20:01:09 66° NE 20:06:34 24° SE
SL-16 R/B 2.7 19:56:11 10° NNW 20:01:30 39° ENE 20:03:01 33° E
GPS 2-04 Rocket1 4.3 19:59:13 10° WSW 20:02:47 26° S 20:04:06 22° SSE
Meteor 1-12 Rocket 4.3 19:57:06 10° S 20:02:57 60° E 20:08:45 10° NNE
BREEZE-M DEB (TANK) 4.4 19:59:29 10° WNW 20:03:19 80° NNE 20:12:48 25° ESE
OTV 4 2.0 20:00:48 10° SW 20:03:01 26° S 20:03:01 26° S
GEOS 3 Rocket 3.8 20:01:29 25° ENE 20:04:14 47° ESE 20:09:19 10° SSW
ERS-1 Rocket 4.2 20:05:00 23° NE 20:05:00 23° NE 20:08:14 10° NNE
Abrixas rocket 3.2 20:01:28 10° W 20:04:40 40° NNW 20:05:21 35° NNE
ATLAS 2AS CENTAUR R/B 4.0 19:59:15 10° NNW 20:06:17 31° NNE 20:09:17 24° ENE
Okean 2 4.5 20:04:25 10° NNW 20:08:26 46° W 20:12:26 10° SSW
Atlas Centaur 2 4.0 20:06:04 10° SSW 20:11:23 21° SSE 20:13:02 19° SSE
Cosmos 1814 Rocket 4.1 20:07:12 10° NNW 20:12:21 75° WSW 20:16:59 13° SSE
Envisat 3.3 20:12:40 42° E 20:13:20 45° ENE 20:18:09 10° N
USA 186 3.8 20:16:29 18° N 20:16:29 18° N 20:17:18 10° N
Cosmos 1939 Rocket 4.4 20:18:22 23° NNE 20:18:22 23° NNE 20:20:16 10° N
NOSS 3-1 (C) 4.1 20:10:17 10° NW 20:17:54 85° SW 20:24:02 20° SSE
Cosmos 1544 Rocket 4.0 20:16:38 10° SSW 20:20:54 60° W 20:25:11 10° N
Cosmos 1295 Rocket 4.5 20:14:56 10° S 20:21:00 58° E 20:27:11 10° NNE
Helios 1B rocket 2.3 20:18:11 10° NNE 20:22:21 82° E 20:26:31 10° SSW
Cosmos 1980 4.1 20:18:24 10° NNW 20:23:58 61° WSW 20:28:45 14° S
Aureole 2 Rocket 4.0 20:20:48 10° NNW 20:22:21 24° N 20:22:21 24° N
SL-8 Rocket 4.1 20:22:35 33° SE 20:24:59 48° E 20:31:02 10° NNE
Cosmos 2333 Rocket 3.2 20:22:02 10° NW 20:27:31 46° WSW 20:32:59 10° S
BREEZE-M DEB (TANK) 4.1 20:24:32 10° W 20:27:32 35° SSW 20:31:05 21° SSE
Cosmos 1437 4.4 20:25:37 10° NNW 20:28:37 34° W 20:30:02 23° SW
USA 32 3.9 20:23:50 10° N 20:29:05 84° E 20:31:43 30° S
Helios 1A 3.3 20:29:35 34° S 20:31:15 63° WSW 20:35:23 10° NNW
Cosmos 1975 3.2 20:28:11 10° SSW 20:32:11 64° W 20:36:15 10° N
Cosmos 1500 3.5 20:29:47 10° SSW 20:33:33 62° W 20:37:18 10° N
Cosmos 1602 Rocket 3.6 20:31:03 10° N 20:35:04 71° NNE 20:35:04 71° NNE
Cosmos 1626 Rocket 3.6 20:35:03 10° N 20:39:17 79° NNW 20:39:17 79° NNW
Cosmos 841 Rocket 3.8 20:44:32 10° NNW 20:49:37 61° WSW 20:50:47 48° SSW
Cosmos 2082 4.2 20:45:46 10° SW 20:51:23 58° WNW 20:57:03 10° NNE
Cosmos 540 Rocket 4.1 20:51:23 10° NNW 20:55:05 46° N 20:55:05 46° N
H-2A R/B 4.4 21:09:24 14° NNE 21:09:24 14° NNE 21:10:19 10° N
Cosmos 2237 Rocket 3.9 21:03:06 10° NW 21:07:56 29° WSW 21:11:41 15° SSW
Cosmos 2297 Rocket 3.1 21:05:01 10° SW 21:10:27 47° WNW 21:15:56 10° NNE
Cosmos 1727 Rocket 4.4 21:05:17 10° N 21:10:05 52° NNE 21:10:05 52° NNE
Cosmos 371 Rocket 4.4 21:10:08 10° NW 21:14:30 41° W 21:14:30 41° W
Cosmos 2227 Rocket 4.1 21:26:58 10° WSW 21:31:42 27° NW 21:36:29 10° N
SL-16 R/B 3.6 21:40:29 10° NW 21:44:57 33° W 21:44:57 33° W
ATLAS 2AS CENTAUR R/B 3.3 21:50:14 10° NW 21:56:44 61° NW 21:56:44 61° NW
